Temperature
21 21 21 20 20 20 20 19 19 19 18 18 18 17 17 17 17 17 17 17 17 16 16 16 16 16 16 16 16 16 16 15 15 14 13 13 13 13 13 13 13 13 13
21 21 21 20 20 20 19 19 19 19 18 18 18 17 17 17 17 17 17 16 16 16 16 16 16 16 16 16 16 16 15 15 15 14 13 13 13 13 12 12 12 12 12
21 21 21 20 20 20 19 19 19 18 18 18 18 17 17 17 17 16 16 16 16 16 16 16 16 16 16 15 15 15 15 15 14 14 13 13 13 12 12 12 12 12 12
21 21 21 20 20 20 19 19 18 18 18 18 18 17 17 17 16 16 16 16 16 16 16 16 16 15 15 15 15 15 15 14 14 14 13 13 12 12 12 12 12 12 11
21 21 21 20 20 19 19 19 19 18 18 18 17 17 17 17 16 16 16 16 16 16 16 16 15 15 15 15 15 14 14 14 14 13 13 12 12 12 12 12 12 12 11
21 21 20 20 20 19 19 19 18 18 18 18 17 17 17 17 16 16 16 16 16 15 15 15 15 15 15 14 14 14 14 14 14 13 13 13 12 12 12 12 12 11 11
21 20 20 20 19 19 19 19 18 18 18 17 17 17 17 17 17 16 16 16 15 15 15 15 14 14 14 14 14 14 14 13 13 13 13 13 13 12 12 12 12 11 11
20 20 20 19 19 19 19 18 18 18 18 17 17 17 17 17 16 16 16 15 15 15 15 14 14 14 14 14 14 14 13 13 13 13 13 13 13 12 12 12 11 11 11
20 20 19 19 19 19 18 18 18 18 18 17 17 17 17 16 16 16 15 15 15 15 14 14 14 14 14 14 13 13 13 13 13 13 13 12 12 12 12 11 11 11 11
20 19 19 19 19 19 18 18 18 18 17 17 16 16 16 16 16 16 15 15 14 14 14 14 14 14 14 13 13 13 13 13 13 12 12 12 12 12 11 11 11 11 11
19 19 19 19 19 18 18 18 17 17 16 16 16 16 16 16 16 15 15 15 14 14 14 14 14 14 13 13 13 13 12 12 12 12 12 12 11 11 11 11 11 11 11
19 19 18 18 18 18 17 17 17 16 16 16 16 16 15 15 15 15 15 15 14 14 14 14 13 13 13 13 13 12 12 12 12 12 12 11 11 11 11 11 11 11 11
18 18 18 18 18 17 17 17 16 16 16 16 15 15 15 15 15 15 15 14 14 14 14 13 13 13 13 13 13 12 12 12 12 12 12 12 11 11 11 11 11 11 11
18 17 17 17 17 17 17 16 16 16 16 15 15 15 15 15 15 15 14 14 14 13 13 13 13 13 13 13 12 12 12 12 12 12 12 11 11 11 11 11 11 10 10
17 17 17 16 16 16 16 16 16 16 16 16 16 15 15 15 15 15 14 14 14 13 13 13 12 12 12 12 12 12 12 12 11 11 11 11 11 11 11 11 10 10 10
16 16 16 16 16 16 16 16 16 16 16 15 15 15 15 15 15 15 14 14 14 13 13 13 13 12 12 12 12 12 12 11 11 11 11 11 11 11 11 11 10 10 10
16 16 16 16 16 16 16 16 16 15 15 15 15 15 15 15 14 14 14 14 13 13 13 12 12 12 12 12 12 12 11 11 11 11 11 11 11 11 11 10 10 10 10
16 16 16 16 16 16 15 15 15 15 15 15 15 15 14 14 14 14 14 13 13 13 13 12 12 12 12 12 12 12 11 11 11 11 11 11 11 10 10 10 10 10 10
15 15 15 15 15 15 15 15 15 15 15 15 15 14 14 14 14 13 13 13 13 13 13 12 12 12 12 12 12 12 11 11 11 11 11 10 10 10 10 10 10 10 10
15 15 15 15 15 15 15 15 15 14 14 14 14 14 14 14 13 13 13 13 13 12 12 12 12 12 12 12 12 11 11 11 11 10 10 10 10 10 10 10 10 10 10
15 15 14 14 15 15 15 14 15 14 14 14 14 14 14 14 13 13 13 13 12 12 12 12 12 12 12 11 11 11 11 11 10 10 10 10 10 10 10 10 10 10 10
14 14 14 14 14 14 14 14 14 14 14 14 14 13 13 13 13 13 13 12 12 12 12 12 11 11 11 11 11 11 10 10 10 10 10 10 10 9 9 9 9 9 9
14 15 14 14 14 14 14 14 14 14 14 14 14 13 13 13 12 12 12 12 12 12 12 11 11 11 11 11 10 10 10 10 10 10 10 10 9 9 9 9 9 9 9
14 14 14 14 14 14 14 14 14 14 14 14 13 13 13 12 12 12 12 12 12 11 11 11 11 11 10 10 10 10 10 10 10 10 10 9 9 9 9 9 9 9 8
14 14 14 14 14 14 13 13 13 13 13 13 13 13 12 12 12 12 12 11 11 11 11 11 11 10 10 10 10 10 10 9 9 9 9 9 9 9 9 8 8 8 8
14 14 14 13 13 13 13 13 13 13 13 13 13 12 12 12 12 11 11 11 11 11 11 10 10 10 10 10 9 9 9 9 9 9 9 9 8 8 8 8 8 8 8
Wind_Speed
8 7 6 7 6 5 4 3 3 2 2 2 2 2 2 3 3 3 3 3 4 3 3 4 3 3 2 2 2 2 3 4 5 3 3 2 3 4 7 9 10 9 9
9 8 6 6 6 5 5 4 4 3 2 2 2 2 2 3 3 3 3 4 4 4 4 4 3 3 3 2 2 3 3 4 6 6 4 3 2 3 4 5 7 8 9
10 9 8 7 6 5 5 4 4 3 3 2 2 2 2 3 3 3 3 4 4 4 4 4 4 4 3 2 3 3 3 4 5 6 5 3 2 3 3 4 5 6 9
10 9 8 7 7 6 5 5 4 4 4 3 2 2 2 3 3 3 3 4 4 4 4 4 4 4 3 2 3 3 3 4 4 5 5 4 3 2 3 3 4 3 4
9 9 8 7 7 6 5 5 4 4 4 3 3 2 2 3 3 3 1 4 4 4 4 5 5 6 7 4 3 3 3 3 3 4 5 4 3 3 2 2 3 3 3
9 9 9 8 8 7 6 5 5 4 4 4 3 3 3 3 5 6 4 3 3 3 3 3 4 5 6 7 7 6 5 4 3 3 3 4 4 3 1 2 2 3 2
9 8 9 9 8 7 7 6 5 5 4 4 4 4 5 4 5 6 5 2 3 3 3 2 3 4 4 3 4 5 6 5 4 4 4 4 4 3 3 2 2 2 1
9 8 8 9 8 7 7 6 5 4 4 3 4 5 5 4 4 4 4 1 3 3 3 3 4 4 4 3 3 4 4 4 3 3 3 2 3 2 1 2 3 2 2
8 8 8 8 8 8 7 6 6 5 5 4 4 4 4 3 2 2 3 1 3 3 3 4 4 4 6 6 3 4 4 3 5 7 6 6 6 4 2 1 2 2 2
8 8 8 7 7 7 7 6 6 5 5 4 4 4 5 4 2 1 1 1 3 3 3 4 6 5 5 6 2 2 3 2 3 3 3 4 5 4 3 2 2 1 1
7 7 7 7 7 8 7 6 6 5 5 4 4 4 4 5 4 2 1 0 0 2 3 3 3 4 3 3 3 1 1 1 1 3 3 3 3 3 3 3 2 1 0
6 6 7 7 7 8 7 6 6 6 5 5 4 4 4 5 4 4 3 1 1 0 1 2 3 5 2 0 0 0 0 1 1 2 3 3 3 3 3 3 3 2 2
5 6 6 6 6 7 8 7 6 5 5 5 5 5 5 5 4 5 5 3 1 1 2 4 5 5 4 2 4 3 2 2 2 2 3 3 3 3 3 3 2 3 4
5 5 6 6 6 6 6 6 6 6 6 5 5 5 4 5 5 4 4 4 4 3 2 3 5 5 4 3 3 3 3 3 3 3 2 2 2 3 3 3 3 3 2
5 5 5 6 5 5 5 3 4 3 4 4 4 4 4 5 4 6 5 4 3 3 3 3 3 3 3 3 3 3 3 3 3 3 2 1 2 3 3 2 2 2 2
4 4 5 5 5 5 5 2 3 2 4 5 4 3 2 4 8 8 7 5 5 5 4 4 4 4 4 4 4 4 4 3 3 3 2 2 2 3 3 2 2 3 3
4 4 4 5 5 5 5 5 4 2 4 4 3 4 5 6 7 7 6 4 5 5 4 5 4 4 4 4 4 4 4 4 3 3 3 3 2 2 2 2 3 3 3
5 5 5 5 5 6 5 5 5 5 4 2 2 5 7 8 7 7 6 4 4 5 5 5 4 4 4 4 4 3 3 3 3 3 3 3 3 3 3 3 3 3 3
4 4 4 4 4 5 5 5 5 5 5 4 3 3 4 5 5 5 5 5 6 6 6 5 5 4 4 4 3 2 2 2 2 3 3 3 3 3 3 3 3 4 4
4 5 5 4 4 4 5 5 5 5 6 5 6 5 5 4 4 5 6 6 6 6 5 5 4 3 3 2 2 2 2 2 2 2 2 3 3 3 3 3 3 3 2
4 4 5 5 4 4 4 5 5 5 5 5 5 6 9 7 7 7 7 6 6 6 5 4 4 3 3 2 2 2 3 2 2 3 3 3 3 3 3 3 3 2 2
3 4 4 4 4 4 4 4 4 4 5 5 4 5 9 6 5 5 6 6 5 5 4 4 4 3 3 3 2 2 2 2 2 3 3 4 4 3 3 3 2 2 2
4 4 4 4 4 4 4 4 4 5 5 4 4 5 6 5 5 4 4 4 4 4 3 3 3 3 2 2 2 2 2 2 3 3 4 4 3 2 2 2 2 2 2
4 4 4 4 4 4 4 3 3 3 4 4 4 4 5 5 4 4 3 3 3 4 3 3 3 3 3 2 3 3 2 2 3 3 3 4 3 2 2 2 2 2 2
4 4 4 4 4 4 3 3 3 3 4 3 3 3 4 4 4 4 3 3 3 3 3 3 3 3 3 3 2 1 2 2 1 2 3 3 3 2 2 2 2 2 2
3 3 3 3 3 4 3 3 4 4 4 3 3 3 3 4 4 4 3 3 2 2 3 3 3 4 4 3 3 3 4 3 2 2 2 3 2 1 1 2 3 3 3
Wind_Direction
165 163 162 159 159 159 154 140 125 112 88 76 58 64 64 51 48 51 54 56 53 40 35 42 35 28 24 32 56 89 106 116 124 117 108 109 91 104 120 121 118 110 105
164 162 162 154 156 159 154 148 147 135 122 106 90 62 69 65 58 55 51 56 55 48 44 39 36 43 40 39 58 79 104 120 135 135 138 137 126 128 140 146 132 125 119
164 163 160 160 158 158 152 150 145 135 126 116 106 92 68 62 65 63 64 60 59 52 47 44 39 41 41 48 68 84 102 118 129 137 145 143 145 148 142 132 128 130 129
163 163 163 164 161 160 153 151 149 145 141 135 125 110 97 74 60 57 74 72 70 65 57 52 45 41 37 49 76 84 103 114 129 140 146 149 146 156 147 148 132 133 132
159 163 162 157 154 152 154 152 148 152 145 136 124 115 122 109 69 48 75 95 79 76 70 66 66 69 61 56 71 74 104 124 134 142 142 134 133 145 158 157 140 134 129
158 161 157 157 156 156 154 151 149 148 140 140 131 114 91 83 62 49 37 82 80 77 76 84 96 80 73 79 83 82 86 108 128 133 135 144 148 152 151 149 148 149 154
160 160 158 158 157 161 163 155 156 154 141 133 122 107 95 77 58 49 33 71 88 79 68 51 71 75 73 77 93 96 78 75 99 131 139 149 151 159 164 158 143 161 166
160 161 161 161 163 163 159 156 154 146 142 141 132 128 123 104 65 44 17 91 99 83 70 65 79 66 40 41 99 94 88 64 71 115 129 132 136 125 155 157 160 157 169
163 165 165 164 164 165 164 160 154 151 152 155 149 145 134 121 88 42 10 141 127 109 87 62 73 74 43 36 84 96 96 96 83 97 114 131 142 145 120 120 155 176 182
169 169 165 163 166 167 164 160 156 156 161 164 154 153 145 142 142 90 21 220 148 134 114 97 81 79 60 37 64 101 117 117 109 108 118 152 173 181 188 189 183 198 193
158 155 161 163 165 163 160 160 159 166 172 169 158 159 151 152 158 151 95 320 124 152 147 135 122 111 88 37 20 59 138 147 177 169 172 176 182 186 192 185 172 170 201
151 155 159 161 166 160 155 162 165 171 173 172 167 171 161 158 163 172 159 132 22 27 119 122 135 148 135 78 355 225 227 275 220 201 187 184 187 191 194 179 182 186 199
155 155 154 156 153 154 163 168 171 180 188 185 186 191 184 170 167 167 167 159 112 85 81 118 152 178 187 204 217 228 230 242 238 232 215 197 189 182 176 178 196 209 224
157 160 158 159 162 160 169 176 183 189 197 196 195 193 180 170 167 170 176 172 163 160 153 155 182 208 235 238 216 216 228 243 243 245 230 195 175 173 189 191 201 207 215
161 164 166 170 171 165 168 177 181 178 184 195 202 194 183 179 178 166 170 179 186 170 167 177 200 207 207 211 213 218 228 237 246 248 242 208 185 188 195 191 199 222 224
170 175 181 181 176 182 175 157 52 122 128 127 129 145 144 155 161 164 170 171 173 168 186 209 213 215 216 213 217 218 218 227 235 235 232 226 215 210 205 192 193 219 236
188 192 197 192 182 193 189 181 172 100 74 86 114 135 150 161 162 168 170 175 183 172 207 225 221 217 223 229 228 224 218 217 222 224 229 233 228 221 213 207 210 221 233
198 195 206 205 193 195 194 192 187 181 181 176 150 163 165 168 173 178 171 163 204 208 224 230 231 221 221 231 234 228 221 209 207 221 232 242 239 233 231 218 217 230 232
204 199 205 210 204 199 191 192 192 192 195 184 168 159 169 164 171 188 181 212 222 224 227 226 231 233 228 223 224 223 225 218 214 225 226 231 238 237 238 234 234 236 239
210 200 208 218 210 205 201 204 200 198 199 192 191 178 163 172 195 200 206 224 232 233 233 226 225 232 235 233 221 216 221 216 213 227 238 238 234 239 246 243 237 228 225
216 195 203 219 217 213 211 213 212 207 205 203 201 183 175 195 204 206 209 216 226 234 236 232 222 219 222 220 221 220 222 222 217 226 234 240 238 232 241 245 242 232 230
209 198 209 217 216 217 220 221 220 216 210 207 196 179 180 200 209 210 211 213 220 230 229 229 233 220 225 230 221 222 234 243 244 247 238 238 238 232 235 234 226 227 240
217 208 202 211 220 214 221 221 223 227 222 210 196 177 182 205 212 217 219 218 210 214 223 219 229 234 225 218 206 204 220 237 252 252 250 247 244 241 238 237 232 230 234
214 212 211 209 207 214 223 225 229 235 233 216 202 190 188 199 214 220 219 214 212 212 216 212 211 216 222 227 208 198 198 226 244 254 259 257 248 232 228 235 228 216 238
216 215 215 215 209 208 208 210 222 232 233 226 210 202 196 197 207 219 218 209 208 205 207 206 202 204 219 227 204 196 179 173 203 253 270 261 252 230 222 226 214 207 233
225 227 225 216 211 208 210 212 215 220 221 215 207 204 205 205 206 209 203 198 200 194 199 194 189 179 180 191 195 190 175 166 183 242 254 249 238 238 255 245 229 223 229
Height
1532 1534 1536 1537 1539 1539 1540 1541 1541 1542 1542 1542 1542 1542 1541 1541 1541 1540 1540 1539 1539 1538 1538 1538 1538 1538 1538 1538 1539 1539 1539 1540 1541 1543 1544 1545 1546 1546 1546 1545 1545 1545 1545
1531 1533 1535 1536 1537 1538 1539 1540 1541 1541 1541 1541 1542 1542 1541 1541 1540 1540 1539 1539 1538 1538 1538 1537 1537 1537 1537 1537 1538 1538 1538 1539 1540 1541 1543 1544 1545 1546 1546 1545 1546 1546 1545
1529 1531 1533 1535 1536 1537 1538 1539 1540 1540 1540 1541 1541 1541 1541 1541 1541 1540 1539 1539 1538 1538 1537 1537 1537 1536 1536 1537 1537 1537 1538 1539 1540 1540 1542 1543 1544 1545 1546 1547 1547 1546 1546
1527 1529 1531 1533 1534 1536 1537 1538 1539 1539 1539 1540 1540 1540 1540 1540 1540 1540 1539 1539 1538 1538 1537 1537 1536 1536 1536 1536 1536 1537 1537 1538 1539 1540 1541 1543 1544 1545 1546 1546 1546 1547 1547
1525 1527 1529 1531 1533 1535 1536 1537 1538 1539 1539 1539 1539 1539 1540 1540 1540 1540 1539 1539 1538 1538 1537 1536 1536 1536 1536 1536 1536 1536 1537 1538 1538 1539 1540 1541 1542 1543 1544 1545 1546 1546 1547
1523 1525 1527 1529 1531 1533 1534 1535 1536 1537 1538 1538 1539 1539 1539 1539 1539 1539 1539 1538 1538 1538 1537 1537 1536 1536 1536 1536 1536 1536 1536 1537 1537 1538 1539 1540 1541 1542 1543 1544 1545 1545 1546
1521 1523 1525 1527 1529 1530 1532 1534 1535 1536 1537 1537 1538 1538 1538 1538 1539 1538 1538 1538 1538 1538 1537 1537 1537 1536 1536 1535 1535 1536 1536 1536 1537 1537 1538 1538 1539 1540 1542 1543 1543 1544 1544
1518 1521 1523 1524 1526 1528 1530 1531 1533 1534 1535 1536 1536 1537 1537 1538 1538 1538 1538 1538 1537 1537 1537 1537 1536 1536 1536 1536 1535 1535 1535 1536 1536 1537 1537 1538 1539 1539 1540 1542 1542 1543 1544
1516 1518 1520 1522 1524 1526 1528 1529 1530 1532 1533 1534 1535 1535 1536 1537 1537 1537 1537 1537 1537 1537 1537 1536 1536 1536 1536 1536 1535 1535 1535 1535 1536 1536 1537 1537 1538 1539 1539 1540 1541 1542 1542
1514 1516 1518 1520 1522 1523 1525 1527 1528 1530 1531 1533 1534 1534 1535 1535 1536 1536 1536 1536 1536 1536 1536 1536 1536 1536 1536 1535 1535 1535 1534 1535 1535 1536 1536 1537 1537 1538 1538 1539 1540 1540 1541
1512 1514 1516 1517 1518 1520 1522 1524 1526 1528 1529 1531 1532 1533 1534 1534 1535 1535 1535 1535 1535 1535 1535 1535 1535 1535 1535 1535 1535 1535 1535 1535 1535 1535 1536 1536 1536 1537 1537 1538 1538 1539 1539
1509 1511 1513 1515 1516 1518 1520 1522 1524 1526 1527 1529 1530 1531 1532 1533 1533 1534 1534 1534 1534 1534 1534 1534 1534 1534 1534 1534 1534 1534 1534 1534 1534 1535 1535 1535 1535 1536 1536 1536 1537 1537 1537
1507 1509 1511 1513 1514 1516 1518 1520 1522 1524 1526 1527 1528 1529 1530 1530 1531 1532 1532 1533 1533 1533 1533 1533 1533 1533 1533 1533 1533 1533 1533 1533 1534 1534 1534 1534 1534 1534 1534 1535 1535 1535 1535
1505 1507 1509 1511 1512 1514 1516 1518 1519 1521 1523 1524 1525 1526 1527 1528 1528 1529 1529 1530 1530 1530 1531 1531 1532 1532 1532 1531 1531 1532 1532 1532 1532 1532 1532 1532 1532 1532 1532 1532 1532 1533 1533
1503 1505 1507 1509 1510 1512 1513 1515 1516 1517 1518 1521 1522 1523 1524 1524 1525 1526 1527 1527 1528 1528 1528 1529 1529 1530 1530 1530 1529 1530 1530 1530 1530 1530 1530 1530 1530 1530 1530 1530 1530 1531 1531
1501 1503 1505 1507 1508 1509 1510 1512 1513 1515 1516 1517 1519 1520 1521 1522 1523 1524 1524 1525 1525 1526 1526 1526 1526 1527 1527 1527 1527 1527 1527 1527 1527 1528 1528 1528 1527 1527 1527 1527 1528 1528 1528
1499 1501 1503 1504 1505 1507 1507 1509 1509 1511 1512 1513 1515 1516 1518 1519 1520 1520 1521 1522 1522 1522 1522 1522 1523 1524 1524 1524 1524 1524 1524 1524 1524 1525 1525 1525 1525 1525 1525 1525 1525 1525 1525
1497 1499 1500 1501 1502 1503 1504 1506 1507 1507 1508 1509 1511 1512 1513 1515 1516 1516 1517 1518 1518 1518 1518 1519 1520 1520 1520 1521 1521 1521 1521 1521 1521 1521 1521 1522 1522 1521 1521 1522 1522 1522 1522
1495 1496 1497 1498 1499 1500 1501 1503 1504 1504 1505 1506 1507 1508 1509 1510 1511 1512 1513 1513 1514 1514 1515 1515 1516 1516 1517 1517 1517 1517 1517 1517 1517 1517 1518 1518 1518 1518 1518 1518 1518 1519 1519
1492 1493 1494 1495 1496 1497 1498 1499 1500 1501 1502 1502 1503 1504 1504 1505 1506 1507 1508 1509 1510 1510 1511 1511 1511 1512 1513 1513 1513 1513 1513 1514 1514 1514 1514 1514 1514 1514 1514 1515 1515 1515 1515
1489 1489 1491 1492 1492 1493 1495 1496 1497 1498 1499 1499 1499 1499 1500 1501 1502 1503 1504 1504 1505 1506 1506 1507 1507 1508 1508 1508 1509 1509 1509 1510 1510 1510 1511 1510 1510 1510 1510 1511 1511 1512 1511
1486 1486 1488 1489 1489 1490 1491 1493 1494 1495 1496 1496 1497 1496 1497 1498 1498 1499 1499 1500 1501 1501 1502 1502 1503 1503 1503 1504 1504 1505 1505 1505 1505 1506 1506 1507 1507 1507 1507 1507 1507 1507 1508
1483 1484 1485 1486 1486 1487 1489 1490 1491 1492 1493 1493 1493 1493 1493 1494 1495 1495 1496 1496 1496 1497 1498 1498 1498 1499 1499 1500 1500 1500 1500 1501 1501 1501 1502 1502 1503 1503 1503 1503 1503 1503 1504
1480 1481 1482 1483 1483 1484 1485 1486 1487 1489 1490 1490 1490 1490 1490 1490 1491 1492 1492 1492 1493 1493 1494 1494 1494 1494 1495 1495 1495 1496 1496 1496 1497 1497 1497 1498 1498 1498 1498 1499 1499 1499 1500
1477 1478 1479 1479 1480 1481 1482 1483 1484 1485 1486 1486 1487 1487 1487 1487 1487 1488 1488 1489 1489 1489 1490 1490 1490 1490 1490 1491 1491 1491 1491 1492 1492 1493 1493 1493 1493 1493 1494 1494 1495 1495 1496
1474 1475 1476 1476 1477 1478 1479 1479 1480 1481 1482 1483 1483 1483 1484 1484 1484 1484 1484 1485 1485 1485 1486 1486 1486 1486 1486 1486 1486 1487 1487 1488 1488 1488 1489 1489 1489 1489 1490 1490 1491 1491 1492